W0DXV Weather Reports


Display with metric or nautical units.
time (UTC)temp
F
wind
direction
speed
MPH
gust
MPH
rain 1hr
in
rain 24hr
in
rain mn
in
humidity
%
barometer
mb
20260904223749 90 234 1.0 2.0 0.00 0.00 0.00 65 1009.9
20260904223244 90 233 1.0 1.0 0.00 0.00 0.00 67 1010.0
20260904222741 89 258 1.0 2.0 0.00 0.00 0.00 72 1010.1
20260904222235 89 203 0.0 0.0 0.00 0.00 0.00 74 1010.1
20260904221735 89 203 0.0 0.0 0.00 0.00 0.00 69 1009.9
20260904221230 89 203 0.0 0.0 0.00 0.00 0.00 68 1010.0
20260904220725 90 203 0.0 0.0 0.00 0.00 0.00 68 1009.8
20260904220220 90 203 0.0 0.0 0.00 0.00 0.00 67 1010.1
20260904215720 90 203 0.0 0.0 0.00 0.00 0.00 66 1010.0
20260904215215 91 204 0.0 1.0 0.00 0.00 0.00 66 1009.9
20260904214710 92 205 1.0 2.0 0.00 0.00 0.00 63 1010.0
20260904214206 92 235 1.0 1.0 0.00 0.00 0.00 62 1009.9
20260904213704 93 237 0.0 0.0 0.00 0.00 0.00 60 1010.1
20260904213200 93 185 1.0 1.0 0.00 0.00 0.00 59 1009.9
20260904212655 93 234 0.0 1.0 0.00 0.00 0.00 59 1010.0
20260904212150 94 217 0.0 0.0 0.00 0.00 0.00 60 1010.1
20260904211644 94 194 1.0 1.0 0.00 0.00 0.00 58 1009.9
20260904211140 94 231 0.0 0.0 0.00 0.00 0.00 57 1010.0
20260904210639 95 243 1.0 1.0 0.00 0.00 0.00 61 1009.8
20260904210135 95 211 1.0 1.0 0.00 0.00 0.00 56 1009.9
20260904205631 95 244 2.0 2.0 0.00 0.00 0.00 57 1009.7
20260904205127 96 242 0.0 1.0 0.00 0.00 0.00 56 1009.9
20260904204623 98 106 1.0 2.0 0.00 0.00 0.00 54 1009.8
20260904204119 97 244 1.0 1.0 0.00 0.00 0.00 50 1009.8
20260904203614 97 250 0.0 1.0 0.00 0.00 0.00 55 1009.8
20260904203111 98 215 1.0 1.0 0.00 0.00 0.00 52 1009.9
20260904202607 98 200 1.0 1.0 0.00 0.00 0.00 54 1009.8
20260904202102 98 111 1.0 1.0 0.00 0.00 0.00 49 1009.9
20260904201556 99 217 1.0 1.0 0.00 0.00 0.00 49 1010.0
20260904201052 99 231 0.0 0.0 0.00 0.00 0.00 49 1009.9
20260904200550 100 199 1.0 1.0 0.00 0.00 0.00 46 1009.8
20260904200046 100 260 2.0 3.0 0.00 0.00 0.00 45 1010.1
20260904195544 100 148 1.0 1.0 0.00 0.00 0.00 43 1010.2
20260904195038 101 133 1.0 1.0 0.00 0.00 0.00 44 1010.1
20260904194533 100 247 1.0 1.0 0.00 0.00 0.00 41 1010.1
20260904194028 99 232 0.0 0.0 0.00 0.00 0.00 46 1010.5
20260904193522 99 153 1.0 1.0 0.00 0.00 0.00 49 1010.6
20260904193019 98 241 0.0 0.0 0.00 0.00 0.00 46 1011.0
20260904192518 99 219 2.0 2.0 0.00 0.00 0.00 47 1011.1
20260904192015 100 282 1.0 2.0 0.00 0.00 0.00 46 1011.0
20260904191511 99 221 1.0 1.0 0.00 0.00 0.00 52 1011.0
20260904191007 98 197 1.0 1.0 0.00 0.00 0.00 52 1011.0
20260904190503 98 202 1.0 1.0 0.00 0.00 0.00 51 1011.2
20260904185958 98 159 1.0 2.0 0.00 0.00 0.00 50 1011.4
20260904185454 99 198 1.0 1.0 0.00 0.00 0.00 49 1011.3
20260904184949 100 263 1.0 1.0 0.00 0.00 0.00 49 1011.6
20260904184443 99 229 1.0 1.0 0.00 0.00 0.00 48 1011.5
20260904183938 98 84 1.0 1.0 0.00 0.00 0.00 49 1011.6
20260904183433 98 234 1.0 1.0 0.00 0.00 0.00 53 1011.6
20260904182929 99 211 1.0 1.0 0.00 0.00 0.00 50 1011.9
20260904182424 99 223 0.0 0.0 0.00 0.00 0.00 49 1011.9
20260904181919 98 232 1.0 1.0 0.00 0.00 0.00 50 1011.7
20260904181414 99 222 1.0 1.0 0.00 0.00 0.00 49 1012.0
20260904180909 98 219 0.0 1.0 0.00 0.00 0.00 51 1012.0
20260904180404 98 256 1.0 1.0 0.00 0.00 0.00 48 1012.0
20260904175903 98 221 1.0 1.0 0.00 0.00 0.00 51 1012.2
20260904175403 98 173 1.0 1.0 0.00 0.00 0.00 53 1012.2
20260904174857 97 243 1.0 1.0 0.00 0.00 0.00 50 1012.1
20260904174353 97 177 1.0 1.0 0.00 0.00 0.00 55 1012.2
20260904173849 97 149 1.0 1.0 0.00 0.00 0.00 52 1012.2
20260904173344 96 222 1.0 1.0 0.00 0.00 0.00 53 1012.4
20260904172840 97 247 2.0 2.0 0.00 0.00 0.00 51 1012.4
20260904172339 97 263 1.0 1.0 0.00 0.00 0.00 53 1012.5
20260904171839 97 223 1.0 1.0 0.00 0.00 0.00 55 1012.5
20260904171334 95 281 0.0 1.0 0.00 0.00 0.00 62 1012.4
20260904170831 96 21 1.0 1.0 0.00 0.00 0.00 58 1012.6
20260904170326 95 201 1.0 1.0 0.00 0.00 0.00 58 1012.4
20260904165821 94 244 1.0 1.0 0.00 0.00 0.00 57 1012.6
20260904165320 96 223 1.0 1.0 0.00 0.00 0.00 57 1012.7
20260904164815 95 186 1.0 1.0 0.00 0.00 0.00 61 1012.9
20260904164315 95 231 1.0 1.0 0.00 0.00 0.00 60 1013.1
20260904163811 95 262 0.0 1.0 0.00 0.00 0.00 61 1013.0
20260904163306 94 271 1.0 1.0 0.00 0.00 0.00 61 1013.2
20260904162805 93 236 1.0 2.0 0.00 0.00 0.00 62 1013.2
20260904162301 93 130 1.0 2.0 0.00 0.00 0.00 65 1013.3
20260904161755 94 231 1.0 1.0 0.00 0.00 0.00 63 1013.3
20260904161250 93 229 1.0 1.0 0.00 0.00 0.00 63 1013.3
20260904160746 93 54 1.0 1.0 0.00 0.00 0.00 66 1013.3
20260904160241 92 93 2.0 2.0 0.00 0.00 0.00 65 1013.4
20260904155741 93 261 2.0 2.0 0.00 0.00 0.00 63 1013.4
20260904155235 93 234 0.0 1.0 0.00 0.00 0.00 63 1013.4
20260904154733 93 254 1.0 1.0 0.00 0.00 0.00 65 1013.4
20260904154228 92 215 0.0 1.0 0.00 0.00 0.00 67 1013.6
20260904153724 91 248 1.0 1.0 0.00 0.00 0.00 67 1013.7
20260904153219 92 230 0.0 1.0 0.00 0.00 0.00 67 1013.7
20260904152715 91 230 0.0 1.0 0.00 0.00 0.00 68 1013.6
20260904152210 90 234 1.0 1.0 0.00 0.00 0.00 71 1013.7
20260904151705 91 255 1.0 1.0 0.00 0.00 0.00 69 1013.6
20260904151204 91 221 1.0 1.0 0.00 0.00 0.00 69 1013.7
20260904150700 91 232 1.0 1.0 0.00 0.00 0.00 68 1013.6
20260904150155 89 242 0.0 1.0 0.00 0.00 0.00 71 1013.4
20260904145654 89 254 1.0 1.0 0.00 0.00 0.00 71 1013.6
20260904145149 88 205 1.0 1.0 0.00 0.00 0.00 73 1013.8
20260904144644 88 155 1.0 1.0 0.00 0.00 0.00 72 1013.8
20260904144140 87 96 2.0 2.0 0.00 0.00 0.00 75 1013.9
20260904143636 87 252 0.0 1.0 0.00 0.00 0.00 73 1014.0
20260904143132 87 204 0.0 1.0 0.00 0.00 0.00 76 1014.0
20260904142629 87 198 1.0 1.0 0.00 0.00 0.00 77 1014.0
20260904142124 87 244 0.0 1.0 0.00 0.00 0.00 75 1014.1
20260904141618 86 234 0.0 0.0 0.00 0.00 0.00 78 1013.9
20260904141108 85 227 0.0 0.0 0.00 0.00 0.00 78 1013.9
20260904140603 84 262 1.0 1.0 0.00 0.00 0.00 78 1013.8
20260904140058 84 200 1.0 1.0 0.00 0.00 0.00 80 1013.7
20260904135557 82 222 0.0 0.0 0.00 0.00 0.00 83 1013.8
20260904135053 82 206 0.0 1.0 0.00 0.00 0.00 83 1013.8
20260904134548 82 224 0.0 0.0 0.00 0.00 0.00 83 1013.7
20260904134043 82 255 0.0 0.0 0.00 0.00 0.00 84 1013.7
20260904133543 81 252 1.0 1.0 0.00 0.00 0.00 84 1013.7
20260904133034 81 211 0.0 1.0 0.00 0.00 0.00 85 1013.6
20260904132533 81 258 0.0 1.0 0.00 0.00 0.00 84 1013.8
20260904132028 81 215 1.0 1.0 0.00 0.00 0.00 84 1013.6
20260904131528 81 208 0.0 0.0 0.00 0.00 0.00 85 1013.8
20260904131023 81 219 0.0 0.0 0.00 0.00 0.00 86 1013.8
20260904130523 81 217 2.0 2.0 0.00 0.00 0.00 85 1013.7
20260904130018 80 212 0.0 0.0 0.00 0.00 0.00 87 1013.7
20260904125514 80 212 0.0 0.0 0.00 0.00 0.00 87 1013.6
20260904125009 80 212 0.0 0.0 0.00 0.00 0.00 86 1013.6
20260904124504 80 212 0.0 0.0 0.00 0.00 0.00 87 1013.7
20260904124000 78 218 0.0 0.0 0.00 0.00 0.00 90 1013.7
20260904123454 80 208 1.0 1.0 0.00 0.00 0.00 87 1013.4
20260904122950 80 208 0.0 0.0 0.00 0.00 0.00 85 1013.7
20260904122449 82 208 0.0 0.0 0.00 0.00 0.00 81 1013.7
20260904121944 80 208 0.0 0.0 0.00 0.00 0.00 85 1013.4
20260904121440 77 208 0.0 0.0 0.00 0.00 0.00 92 1013.6
20260904120937 76 208 0.0 0.0 0.00 0.00 0.00 94 1013.6
20260904120432 75 208 0.0 0.0 0.00 0.00 0.00 97 1013.4
20260904115926 73 208 0.0 0.0 0.00 0.00 0.00 98 1013.6
20260904115422 73 208 0.0 0.0 0.00 0.00 0.00 99 1013.4
20260904114916 72 208 0.0 1.0 0.00 0.00 0.00 99 1013.4
20260904114411 72 208 0.0 0.0 0.00 0.00 0.00 99 1013.4
20260904113907 72 208 0.0 0.0 0.00 0.00 0.00 99 1013.2
20260904113406 71 207 0.0 0.0 0.00 0.00 0.00 99 1013.3
20260904112905 71 207 0.0 0.0 0.00 0.00 0.00 99 1013.3
20260904112401 71 207 0.0 0.0 0.00 0.00 0.00 99 1013.3
20260904111902 71 207 0.0 0.0 0.00 0.00 0.00 99 1013.2
20260904111357 71 207 0.0 0.0 0.00 0.00 0.00 99 1013.2
20260904110853 71 207 0.0 0.0 0.00 0.00 0.00 99 1013.2
20260904110352 71 207 0.0 0.0 0.00 0.00 0.00 99 1013.2
20260904105847 71 207 0.0 0.0 0.00 0.00 0.00 99 1013.1
20260904105342 71 207 0.0 0.0 0.00 0.00 0.00 99 1013.1
20260904104837 71 207 0.0 0.0 0.00 0.00 0.00 99 1013.1
20260904104333 71 207 0.0 0.0 0.00 0.00 0.00 99 1013.1
20260904103830 71 207 0.0 0.0 0.00 0.00 0.00 99 1012.7
20260904103329 71 207 0.0 0.0 0.00 0.00 0.00 99 1012.8
20260904102826 71 207 0.0 0.0 0.00 0.00 0.00 99 1012.6
20260904102321 71 207 0.0 0.0 0.00 0.00 0.00 99 1012.9
20260904101816 71 207 0.0 0.0 0.00 0.00 0.00 99 1013.0
20260904101313 71 207 0.0 0.0 0.00 0.00 0.00 99 1013.0
20260904100808 71 207 0.0 0.0 0.00 0.00 0.00 99 1012.8
20260904100303 71 207 0.0 0.0 0.00 0.00 0.00 99 1012.9
20260904095758 71 207 0.0 0.0 0.00 0.00 0.00 99 1012.7
20260904095253 71 207 0.0 0.0 0.00 0.00 0.00 99 1012.6
20260904094748 71 207 0.0 0.0 0.00 0.00 0.00 99 1012.6
20260904094243 71 207 0.0 0.0 0.00 0.00 0.00 99 1012.7
20260904093740 71 207 0.0 0.0 0.00 0.00 0.00 99 1012.7
20260904093239 71 207 0.0 0.0 0.00 0.00 0.00 99 1012.6
20260904092734 72 207 0.0 1.0 0.00 0.00 0.00 99 1012.5
20260904092230 72 207 0.0 1.0 0.00 0.00 0.00 99 1012.6
20260904091726 71 207 0.0 0.0 0.00 0.00 0.00 99 1012.3
20260904091222 72 207 0.0 0.0 0.00 0.00 0.00 99 1012.4
20260904090717 72 207 0.0 0.0 0.00 0.00 0.00 99 1012.4
20260904090213 72 207 0.0 0.0 0.00 0.00 0.00 99 1012.2
20260904085708 72 207 0.0 0.0 0.00 0.00 0.00 99 1012.2
20260904085208 72 207 0.0 0.0 0.00 0.00 0.00 99 1012.2
20260904084657 72 207 0.0 0.0 0.00 0.00 0.00 99 1012.3
20260904084153 72 207 0.0 0.0 0.00 0.00 0.00 99 1012.4
20260904083649 72 207 0.0 0.0 0.00 0.00 0.00 99 1012.1
20260904083146 72 207 0.0 0.0 0.00 0.00 0.00 99 1012.2
20260904082640 72 207 0.0 0.0 0.00 0.00 0.00 99 1012.0
20260904082136 72 207 0.0 0.0 0.00 0.00 0.00 99 1012.3
20260904081631 72 207 0.0 0.0 0.00 0.00 0.00 99 1012.1
20260904081126 72 207 0.0 0.0 0.00 0.00 0.00 99 1012.2
20260904080621 72 207 0.0 0.0 0.00 0.00 0.00 99 1012.1
20260904080118 73 207 0.0 0.0 0.00 0.00 0.00 99 1012.1
20260904075613 73 207 0.0 0.0 0.00 0.00 0.00 99 1012.1
20260904075113 73 207 0.0 0.0 0.00 0.00 0.00 99 1012.2
20260904074607 72 207 0.0 0.0 0.00 0.00 0.00 99 1012.1
20260904074102 72 207 0.0 0.0 0.00 0.00 0.00 99 1012.1
20260904073556 73 207 0.0 0.0 0.00 0.00 0.00 99 1012.2
20260904073053 73 207 0.0 0.0 0.00 0.00 0.00 99 1012.3
20260904072548 73 207 0.0 0.0 0.00 0.00 0.00 99 1012.1
20260904072044 73 207 0.0 0.0 0.00 0.00 0.00 99 1012.1
20260904071539 73 207 0.0 0.0 0.00 0.00 0.00 99 1012.2
20260904071034 73 207 0.0 0.0 0.00 0.00 0.00 99 1012.3
20260904070532 73 207 0.0 0.0 0.00 0.00 0.00 99 1012.2
20260904070028 73 207 0.0 0.0 0.00 0.00 0.00 99 1012.2
20260904065523 73 207 0.0 0.0 0.00 0.00 0.00 99 1012.3
20260904065019 73 207 0.0 0.0 0.00 0.00 0.00 99 1012.5
20260904064515 73 207 0.0 0.0 0.00 0.00 0.00 99 1012.6
20260904064009 73 207 0.0 0.0 0.00 0.00 0.00 99 1012.7
20260904063506 74 207 0.0 0.0 0.00 0.00 0.00 98 1012.7
20260904063000 74 207 0.0 0.0 0.00 0.00 0.00 98 1012.8
20260904062457 74 207 0.0 0.0 0.00 0.00 0.00 98 1013.0
20260904061952 74 207 0.0 0.0 0.00 0.00 0.00 98 1012.9
20260904061448 74 207 0.0 0.0 0.00 0.00 0.00 98 1013.0
20260904060944 74 207 0.0 0.0 0.00 0.00 0.00 98 1012.9
20260904060440 74 207 0.0 0.0 0.00 0.00 0.00 98 1013.1
20260904055935 74 207 0.0 0.0 0.00 0.00 0.00 98 1013.2
20260904055431 74 207 0.0 0.0 0.00 0.00 0.00 98 1013.1
20260904054926 74 207 0.0 0.0 0.00 0.00 0.00 98 1013.2
20260904054422 74 207 0.0 0.0 0.00 0.00 0.00 98 1013.3
20260904053917 74 207 0.0 0.0 0.00 0.00 0.00 98 1013.4
20260904053416 75 207 0.0 0.0 0.00 0.00 0.00 98 1013.3
20260904052912 75 207 0.0 0.0 0.00 0.00 0.00 98 1013.4
20260904052409 75 207 0.0 0.0 0.00 0.00 0.00 98 1013.3
20260904051905 75 207 0.0 0.0 0.00 0.00 0.00 98 1013.3
20260904051400 75 207 0.0 0.0 0.00 0.00 0.00 97 1013.6
20260904050854 75 207 0.0 0.0 0.00 0.00 0.00 97 1013.2
20260904050351 75 207 0.0 0.0 0.00 0.00 0.00 97 1013.4
20260904045845 75 207 0.0 0.0 0.00 0.00 0.00 97 1013.6
20260904045340 75 207 0.0 0.0 0.00 0.00 0.00 97 1013.4
20260904044840 75 207 0.0 0.0 0.00 0.00 0.00 97 1013.3
20260904044337 75 207 0.0 0.0 0.00 0.00 0.00 97 1013.4
20260904043833 75 207 0.0 0.0 0.00 0.00 0.00 97 1013.3
20260904043330 75 207 0.0 0.0 0.00 0.00 0.00 97 1013.3
20260904042829 76 207 0.0 0.0 0.00 0.00 0.00 97 1013.2
20260904042325 75 207 0.0 0.0 0.00 0.00 0.00 97 1013.2
20260904041820 76 207 0.0 0.0 0.00 0.00 0.00 97 1013.2
20260904041317 76 207 0.0 0.0 0.00 0.00 0.00 97 1013.1
20260904040812 76 207 0.0 0.0 0.00 0.00 0.00 97 1013.0
20260904040307 76 208 0.0 0.0 0.00 0.00 0.00 97 1013.1
20260904035803 76 208 0.0 0.0 0.00 0.00 0.00 97 1013.0
20260904035300 76 208 0.0 0.0 0.00 0.00 0.00 97 1013.1
20260904034758 76 208 0.0 0.0 0.00 0.00 0.00 97 1013.0
20260904034253 76 208 0.0 0.0 0.00 0.00 0.00 97 1013.1
20260904033749 76 208 0.0 0.0 0.00 0.00 0.00 97 1013.1
20260904033246 76 208 0.0 0.0 0.00 0.00 0.00 96 1013.1
20260904032742 76 208 0.0 0.0 0.00 0.00 0.00 96 1013.0
20260904032241 77 208 0.0 0.0 0.00 0.00 0.00 96 1013.4
20260904031735 77 208 0.0 0.0 0.00 0.00 0.00 96 1013.2
20260904031230 77 208 0.0 0.0 0.00 0.00 0.00 96 1013.4
20260904030720 77 208 0.0 0.0 0.00 0.00 0.00 96 1013.2
20260904030216 77 208 0.0 0.0 0.00 0.00 0.00 96 1013.3
20260904025712 77 208 0.0 0.0 0.00 0.00 0.00 96 1013.4
20260904025207 77 208 0.0 0.0 0.00 0.00 0.00 96 1013.6
20260904024703 77 208 0.0 0.0 0.00 0.00 0.00 96 1013.6
20260904024158 77 208 0.0 0.0 0.00 0.00 0.00 95 1013.6
20260904023653 77 208 0.0 0.0 0.00 0.00 0.00 95 1013.2
20260904023143 77 208 0.0 0.0 0.00 0.00 0.00 95 1013.3
20260904022642 77 208 0.0 0.0 0.00 0.00 0.00 95 1013.4
20260904022140 78 208 0.0 0.0 0.00 0.00 0.00 95 1013.6
20260904021636 78 208 0.0 0.0 0.00 0.00 0.00 95 1013.4
20260904021130 78 208 0.0 0.0 0.00 0.00 0.00 95 1013.4
20260904020627 78 208 0.0 0.0 0.00 0.00 0.00 95 1013.4
20260904020120 78 208 0.0 0.0 0.00 0.00 0.00 94 1013.7
20260904015615 78 208 0.0 0.0 0.00 0.00 0.00 94 1013.2
20260904015114 79 208 0.0 0.0 0.00 0.00 0.00 94 1013.4
20260904014608 79 208 0.0 0.0 0.00 0.00 0.00 94 1013.2
20260904014104 79 208 0.0 0.0 0.00 0.00 0.00 94 1013.2
20260904013601 79 208 0.0 0.0 0.00 0.00 0.00 94 1013.3
20260904013057 79 208 0.0 0.0 0.00 0.00 0.00 93 1013.1
20260904012556 79 208 0.0 0.0 0.00 0.00 0.00 93 1013.2
20260904012050 79 209 0.0 1.0 0.00 0.00 0.00 93 1013.1
20260904011549 80 209 0.0 0.0 0.00 0.00 0.00 93 1012.8
20260904011045 80 209 0.0 0.0 0.00 0.00 0.00 92 1013.1
20260904010541 80 209 0.0 0.0 0.00 0.00 0.00 92 1012.8
20260904010031 80 209 0.0 0.0 0.00 0.00 0.00 92 1012.7
20260904005531 80 209 0.0 0.0 0.00 0.00 0.00 91 1012.6
20260904005021 81 209 0.0 0.0 0.00 0.00 0.00 91 1012.6
20260904004516 81 209 0.0 0.0 0.00 0.00 0.00 90 1012.6
20260904004011 81 209 0.0 0.0 0.00 0.00 0.00 90 1012.4
20260904003507 81 209 0.0 0.0 0.00 0.00 0.00 90 1012.3
20260904003002 82 209 0.0 0.0 0.00 0.00 0.00 89 1012.3
20260904002459 82 209 0.0 0.0 0.00 0.00 0.00 89 1012.2
20260904001957 82 209 0.0 0.0 0.00 0.00 0.00 89 1012.0
20260904001453 82 209 0.0 0.0 0.00 0.00 0.00 88 1012.0
20260904000947 83 209 0.0 0.0 0.00 0.00 0.00 88 1012.1
20260904000447 83 209 0.0 0.0 0.00 0.00 0.00 86 1012.0
20260903235942 84 221 0.0 0.0 0.00 0.00 0.00 84 1011.9
20260903235438 84 221 0.0 0.0 0.00 0.00 0.00 84 1011.8
20260903234932 85 219 0.0 0.0 0.00 0.00 0.00 82 1012.0
20260903234428 85 218 0.0 0.0 0.00 0.00 0.00 81 1011.9
20260903233924 86 218 0.0 0.0 0.00 0.00 0.00 81 1011.9
20260903233420 86 218 0.0 0.0 0.00 0.00 0.00 80 1011.6
20260903232920 86 218 0.0 0.0 0.00 0.00 0.00 79 1011.8
20260903232414 87 218 0.0 0.0 0.00 0.00 0.00 77 1011.8
20260903231909 87 218 0.0 0.0 0.00 0.00 0.00 74 1011.8
20260903231404 88 218 0.0 0.0 0.00 0.00 0.00 74 1011.7
20260903230859 88 218 0.0 0.0 0.00 0.00 0.00 74 1011.7
20260903230354 89 218 0.0 0.0 0.00 0.00 0.00 72 1011.5
20260903225850 90 239 0.0 0.0 0.00 0.00 0.00 68 1011.6
20260903225346 90 239 0.0 0.0 0.00 0.00 0.00 67 1011.7
20260903224842 90 240 0.0 0.0 0.00 0.00 0.00 64 1011.5
20260903224338 90 249 0.0 0.0 0.00 0.00 0.00 66 1011.4